Date String (YYYY-MM-DD hh:mm:ss) UTC,Instrument flags,absolute air pressure of the measurement (hPa),sample flow rate (lpm),inlet stack bypass flow (lpm),air temperature of the measurement (°C),ambient temperature measured by the external sensor (°C),aerosol sample conditioner tube jacket temperature (°C),OPC LED temperature (°C),internal box temperature (°C),relative humidity of the measurement (%),span deviation,mass concentration of particles derived from Lorenz-Mie calculation of OPC scattering (μg/m³),mass concentration of particles derived from Lorenz-Mie calculation of OPC scattering (μg/m³),mass concentration of particles derived from Lorenz-Mie calculation of OPC scattering (μg/m³)
DateTimeUTC,F1_M11,P_M11,Q1_M11,Q2_M11,T1_M11,T2_M11,T3_M11,T4_M11,T5_M11,U1_M11,ZSPAN_M11,X2_M11,X0_M11,X1_M11
2023-08-26 19:00:00,SystemResetWarning,0838.8,5.00,000.00,030.5,027.3,000.0,038.3,030.7,32.0,-000.0,0009.09,0012.55,0008.60
2023-08-26 19:01:00,SystemResetWarning,0838.7,5.01,000.00,030.5,027.5,000.0,038.3,030.7,31.8,0000.4,0009.00,0012.31,0008.51
2023-08-26 19:02:00,SystemResetWarning,0838.7,5.00,000.00,030.5,027.1,000.0,038.3,030.7,32.0,0000.6,0008.89,0012.13,0008.43
2023-08-26 19:03:00,SystemResetWarning,0838.7,4.98,000.00,030.5,025.6,000.0,038.2,030.3,32.0,0000.9,0008.83,0012.00,0008.37
2023-08-26 19:04:00,SystemResetWarning,0838.6,5.01,000.00,030.4,024.6,000.0,038.1,030.2,32.1,0001.0,0008.78,0011.72,0008.34
2023-08-26 19:05:00,SystemResetWarning,0838.6,5.01,000.00,030.3,024.5,000.0,038.1,030.1,32.8,0001.2,0008.71,0012.33,0008.28
2023-08-26 19:06:00,SystemResetWarning,0838.6,4.98,000.00,030.1,024.8,000.0,038.1,030.0,33.7,0000.8,0008.65,0012.37,0008.23
2023-08-26 19:07:00,SystemResetWarning,0838.6,5.00,000.00,030.0,025.2,000.0,038.2,030.1,33.8,0000.7,0008.63,0012.35,0008.20
2023-08-26 19:08:00,SystemResetWarning,0838.6,5.01,000.00,029.9,025.6,000.0,038.2,030.1,33.2,0000.6,0008.63,0012.40,0008.19
2023-08-26 19:09:00,SystemResetWarning,0838.6,5.01,000.00,029.9,026.0,000.0,038.2,030.2,32.9,0000.5,0008.61,0012.49,0008.19
2023-08-26 19:10:00,SystemResetWarning,0838.6,5.00,000.00,029.8,026.3,000.0,038.2,030.3,33.0,0000.5,0008.61,0012.47,0008.17
2023-08-26 19:11:00,SystemResetWarning,0838.6,5.00,000.00,029.8,026.6,000.0,038.2,030.3,33.4,0000.5,0008.56,0012.43,0008.14
2023-08-26 19:12:00,SystemResetWarning,0838.6,5.00,000.00,029.8,026.8,000.0,038.2,030.4,33.0,0000.3,0008.54,0012.43,0008.12
2023-08-26 19:13:00,SystemResetWarning,0838.6,5.00,000.00,029.8,027.0,000.0,038.1,030.5,33.4,0000.2,0008.55,0012.52,0008.09
2023-08-26 19:14:00,SystemResetWarning,0838.6,5.00,000.00,029.8,027.2,000.0,038.1,030.5,33.7,-000.0,0008.51,0012.49,0008.05
2023-08-26 19:15:00,SystemResetWarning,0838.6,5.00,000.00,029.8,027.3,000.0,038.1,030.6,33.3,0000.2,0008.47,0012.45,0008.02
2023-08-26 19:16:00,SystemResetWarning,0838.6,5.00,000.00,029.8,027.4,000.0,038.2,030.6,33.3,0000.4,0008.49,0012.11,0008.02
2023-08-26 19:17:00,SystemResetWarning,0838.6,4.98,000.00,029.8,027.0,000.0,038.1,030.6,33.6,0000.5,0008.53,0011.71,0008.04
2023-08-26 19:18:00,SystemResetWarning,0838.6,5.00,000.00,029.8,025.3,000.0,037.9,030.4,33.4,0000.3,0008.55,0011.81,0008.04
2023-08-26 19:19:00,SystemResetWarning,0838.6,5.00,000.00,029.7,024.5,000.0,037.8,030.1,34.1,0000.3,0008.53,0011.98,0008.05
2023-08-26 19:20:00,SystemResetWarning,0838.5,5.01,000.00,029.5,024.5,000.0,037.7,029.9,34.1,0000.6,0008.57,0012.06,0008.07
2023-08-26 19:21:00,SystemResetWarning,0838.5,5.01,000.00,029.4,024.8,000.0,037.8,029.8,33.9,0000.4,0008.62,0012.17,0008.11
2023-08-26 19:22:00,SystemResetWarning,0838.4,5.00,000.00,029.3,025.2,000.0,037.8,029.9,33.9,-000.0,0008.72,0012.36,0008.17
2023-08-26 19:23:00,SystemResetWarning,0838.4,4.99,000.00,029.3,025.6,000.0,037.8,030.0,34.3,-000.4,0008.81,0012.53,0008.21
2023-08-26 19:24:00,SystemResetWarning,0838.4,5.00,000.00,029.3,026.0,000.0,037.8,030.1,34.2,-000.2,0008.79,0012.45,0008.20
2023-08-26 19:25:00,SystemResetWarning,0838.4,5.01,000.00,029.3,026.3,000.0,037.8,030.2,33.9,-000.1,0008.75,0012.37,0008.17
2023-08-26 19:26:00,SystemResetWarning,0838.4,4.99,000.00,029.3,026.6,000.0,037.7,030.3,34.9,-000.3,0008.68,0012.30,0008.10
2023-08-26 19:27:00,SystemResetWarning,0838.4,5.01,000.00,029.3,026.8,000.0,037.7,030.4,34.6,-000.8,0008.60,0012.23,0008.03
2023-08-26 19:28:00,SystemResetWarning,0838.4,5.01,000.00,029.4,027.1,000.0,037.7,030.4,34.0,-000.5,0008.50,0012.03,0007.94
2023-08-26 19:29:00,SystemResetWarning,0838.4,5.00,000.00,029.4,027.2,000.0,037.7,030.5,34.7,0000.1,0008.41,0011.86,0007.86
2023-08-26 19:30:00,SystemResetWarning,0838.5,5.01,000.00,029.5,027.4,000.0,037.8,030.5,33.9,0000.5,0008.31,0011.63,0007.74
2023-08-26 19:31:00,SystemResetWarning,0838.5,4.99,000.00,029.5,027.3,000.0,037.7,030.6,34.4,0000.7,0008.14,0011.22,0007.59
2023-08-26 19:32:00,SystemResetWarning,0838.4,4.98,000.00,029.5,026.0,000.0,037.6,030.4,34.9,0001.0,0007.98,0011.54,0007.47
2023-08-26 19:33:00,SystemResetWarning,0838.3,5.04,000.00,029.5,024.6,000.0,037.5,030.2,34.0,0001.2,0007.82,0011.61,0007.35
2023-08-26 19:34:00,SystemResetWarning,0838.3,4.98,000.00,029.5,024.3,000.0,037.4,029.9,33.6,0001.4,0007.66,0011.33,0007.23
2023-08-26 19:35:00,SystemResetWarning,0838.3,5.00,000.00,029.3,024.6,000.0,037.5,029.8,34.1,0001.2,0007.52,0011.10,0007.13
2023-08-26 19:36:00,SystemResetWarning,0838.3,5.01,000.00,029.3,025.0,000.0,037.5,029.8,34.7,0001.2,0007.45,0011.04,0007.07
2023-08-26 19:37:00,SystemResetWarning,0838.3,5.01,000.00,029.3,025.4,000.0,037.5,030.0,34.3,0001.1,0007.41,0010.97,0007.03
2023-08-26 19:38:00,SystemResetWarning,0838.3,4.99,000.00,029.3,025.8,000.0,037.6,030.1,34.0,0001.4,0007.38,0010.93,0007.00
2023-08-26 19:39:00,SystemResetWarning,0838.3,5.00,000.00,029.3,026.2,000.0,037.6,030.1,33.8,0001.1,0007.32,0010.87,0006.96
2023-08-26 19:40:00,SystemResetWarning,0838.4,5.00,000.00,029.3,026.5,000.0,037.6,030.2,33.8,0000.6,0007.27,0010.77,0006.92
2023-08-26 19:41:00,SystemResetWarning,0838.5,5.01,000.00,029.3,026.7,000.0,037.6,030.3,33.6,0000.4,0007.28,0010.78,0006.93
2023-08-26 19:42:00,SystemResetWarning,0838.4,5.01,000.00,029.4,026.9,000.0,037.6,030.3,33.7,0000.4,0007.28,0010.69,0006.96
2023-08-26 19:43:00,SystemResetWarning,0838.4,5.01,000.00,029.4,027.1,000.0,037.7,030.4,33.6,0000.2,0007.31,0010.22,0006.97
2023-08-26 19:44:00,SystemResetWarning,0838.4,5.00,000.00,029.4,027.3,000.0,037.7,030.4,34.2,0000.2,0007.30,0010.04,0006.98
2023-08-26 19:45:00,SystemResetWarning,0838.4,4.99,000.00,029.4,027.4,000.0,037.7,030.5,34.4,0000.4,0007.32,0010.58,0007.00
2023-08-26 19:46:00,SystemResetWarning,0838.4,4.99,000.00,029.4,026.6,000.0,037.6,030.4,34.1,0000.8,0007.36,0010.68,0007.03
2023-08-26 19:47:00,SystemResetWarning,0838.3,5.00,000.00,029.3,024.9,000.0,037.5,030.0,33.8,0000.2,0007.37,0010.65,0007.04
2023-08-26 19:48:00,SystemResetWarning,0838.3,5.01,000.00,029.2,024.3,000.0,037.3,029.8,33.7,-000.0,0007.45,0010.83,0007.08
2023-08-26 19:49:00,SystemResetWarning,0838.3,5.01,000.00,029.1,024.3,000.0,037.4,029.6,33.8,-000.5,0007.48,0010.94,0007.10
2023-08-26 19:50:00,SystemResetWarning,0838.3,5.00,000.00,029.0,024.7,000.0,037.4,029.6,34.4,-000.8,0007.52,0010.98,0007.13
2023-08-26 19:51:00,SystemResetWarning,0838.2,4.98,000.00,028.9,025.2,000.0,037.4,029.8,36.0,-000.6,0007.57,0011.06,0007.16
2023-08-26 19:52:00,SystemResetWarning,0838.2,5.02,000.00,029.1,025.6,000.0,037.4,030.0,35.9,-000.5,0007.60,0011.13,0007.18
2023-08-26 19:53:00,SystemResetWarning,0838.2,5.00,000.00,029.4,026.0,000.0,037.4,030.2,35.0,-000.4,0007.61,0011.28,0007.18
2023-08-26 19:54:00,SystemResetWarning,0838.3,4.99,000.00,029.7,026.3,000.0,037.4,030.4,34.3,-000.6,0007.58,0011.72,0007.18
2023-08-26 19:55:00,SystemResetWarning,0838.3,5.00,000.00,029.9,026.6,000.0,037.5,030.4,34.3,-000.7,0007.59,0012.26,0007.19
2023-08-26 19:56:00,SystemResetWarning,0838.3,5.00,000.00,030.0,026.9,000.0,037.6,030.5,33.9,-000.9,0007.59,0011.71,0007.18
2023-08-26 19:57:00,SystemResetWarning,0838.3,5.00,000.00,030.1,027.1,000.0,037.7,030.5,33.9,-000.8,0007.54,0011.61,0007.14
2023-08-26 19:58:00,SystemResetWarning,0838.3,5.00,000.00,030.1,027.2,000.0,037.8,030.5,33.5,-000.5,0007.44,0011.78,0007.04
2023-08-26 19:59:00,SystemResetWarning,0838.3,5.01,000.00,030.2,027.3,000.0,037.8,030.6,33.4,-000.6,0007.27,0011.57,0006.91
